Regional Weather Roundup
Issued by NWS

Home | Current Version | Previous Version | Text Only | Print | Product List | Glossary Off
Versions: 1 2 3 4 5 6 7 8 9 10 11 12 13 14 15 16 17 18 19 20 21 22 23 24 25 26 27 28 29 30 31 32 33 34 35 36 37 38 39 40 41 42 43 44 45 46 47 48 49 50

579
ASUS43 KMPX 212101
RWRMN
WEATHER ROUNDUP FOR MINNESOTA
NATIONAL WEATHER SERVICE TWIN CITIES/CHANHASSEN MN
400 PM CDT SAT APR 21 2018


NOTE: "FAIR" INDICATES FEW OR NO CLOUDS BELOW 12,000 FEET WITH NO
SIGNIFICANT WEATHER AND/OR OBSTRUCTIONS TO VISIBILITY. N/A MEANS
CURRENT SKY AND/OR WEATHER CONDITIONS ARE NOT AVAILABLE.

MNZ060>063-068>070-212200-
   Twin Cities Metro

CITY           SKY/WX    TMP DP  RH WIND       PRES   REMARKS
TWIN CITIES    FAIR      59  18  20 VRB5      30.34F
ST PAUL        FAIR      58  21  24 S8        30.35F
CRYSTAL        FAIR      57  18  21 W6        30.34F
BLAINE         MOSUNNY   59  16  18 CALM      30.35F
LAKEVILLE      FAIR      55  36  47 SE3       30.35F
EDEN PRAIRIE   FAIR      57  17  21 VRB6      30.34F
SOUTH ST PAUL  FAIR      57  28  31 CALM      30.34F
LAKE ELMO      FAIR      55  27  33 W7        30.36F
$$
MNZ001>005-007-008-013>017-022>024-027-028-212200-
   Northwest Minnesota

CITY           SKY/WX    TMP DP  RH WIND       PRES   REMARKS
BEMIDJI        FAIR      59  33  36 E5        30.29S
HALLOCK        FAIR      63  46  55 S20       30.24S
ROSEAU         FAIR      61  46  59 SW13      30.26F
WARROAD        FAIR      61  41  48 SW8       30.27S
THIEF RVR FALL PTSUNNY   57  42  57 SW12      30.29S
CROOKSTON      FAIR      59  43  55 SW10      30.29S
FOSSTON        FAIR      61  34  36 S10       30.29F
DETROIT LAKES  FAIR      59  30  33 S9        30.31F
MOORHEAD       FAIR      59  39  47 S10G16    30.30F
PARK RAPIDS    FAIR      57  30  35 MISG      30.31S
MAHNOMEN       FAIR      59  35  40 S10       30.29F
$$
MNZ006-009>011-018-025>026-212200-
   North Central Minnesota

CITY           SKY/WX    TMP DP  RH WIND       PRES   REMARKS
BAUDETTE       FAIR      60  26  27 SE7       30.27F
FLAG ISLAND    FAIR      52  28  40 SE8       30.25F
INTL FALLS     FAIR      61  30  31 VRB6      30.27F
WASKISH        CLOUDY    55  30  38 NW6       30.29F
BIG FORK       FAIR      59  21  23 CALM      30.30F
LONGVILLE      FAIR      57  27  30 SW5       30.32F
GRAND RAPIDS   FAIR      56  23  27 S7        30.33F
CRANE LAKE     FAIR      57  16  19 CALM      30.31F
ORR            FAIR      61  18  18 S8        30.28S
COOK           FAIR      61  23  23 S7        30.30F
WALKER         FAIR      56  30  36 E6        30.31S
$$
MNZ012-019>021-037-212200-
   Northeast Minnesota

CITY           SKY/WX    TMP DP  RH WIND       PRES   REMARKS
DULUTH         FAIR      56  17  21 SE5       30.32F
ELY            FAIR      57  19  23 W8        30.29F
HIBBING        FAIR      57  17  21 VRB3      30.30F
EVELETH        FAIR      59  21  23 SW7       30.31F
DULUTH HARBOR  FAIR      48  27  43 E7        30.35S
TWO HARBORS    FAIR      64  28  25 SE5       30.31F
SILVER BAY     FAIR      57  14  18 S7        30.32F
GRAND MARAIS     N/A     38  33  82 S3        30.35F
G MARAIS ARPRT FAIR      52  16  24 S10       30.34S
$$
MNZ029>031-032-039>041-046>048-054>057-064-212200-
   West Central Minnesota

CITY           SKY/WX    TMP DP  RH WIND       PRES   REMARKS
FERGUS FALLS   FAIR      57  39  51 S14       30.29F
WHEATON        SUNNY     57  37  47 S12G17    30.33F
MORRIS         CLOUDY    57  36  44 S8        30.32F
ALEXANDRIA     FAIR      59  33  37 SW9       30.33F
ELBOW LAKE     FAIR      57  34  42 S9G21     30.33S
WADENA         FAIR      57  30  35 S5        30.32S
GLENWOOD       FAIR      57  34  41 SW6       30.33F
APPLETON       SUNNY     55  30  38 S10       30.34S
BENSON         SUNNY     57  36  44 S10       30.34F
ORTONVILLE     CLOUDY    55  36  47 S10       30.32F
MADISON        SUNNY     54  39  58 S8        30.34F
WILLMAR        FAIR      55  36  47 CALM      30.36F
$$
MNZ033>034-036-042>043-049>051-058-059-212200-
   Central Minnesota

CITY           SKY/WX    TMP DP  RH WIND       PRES   REMARKS
ST CLOUD       FAIR      56  28  34 VRB3      30.34F
SAUK CENTRE    FAIR      56  34  44 SW5       30.33F
PAYNESVILLE    FAIR      56  35  43 E7        30.34F
AITKIN         FAIR      54  10  17 SE6       30.33S
PINE RIVER     FAIR      54  28  37 SW6       30.35S
BRAINERD       FAIR      58  28  32 S5        30.34S
STAPLES        FAIR      55  28  35 S5        30.33F
LONG PRAIRIE   FAIR      55  32  41 SE5       30.34F
LITTLE FALLS   FAIR      54  21  28 SW3       30.36S
LITCHFIELD     FAIR      57  34  41 SE7       30.35F
BUFFALO        FAIR      55  27  33 SE3       30.36F
MAPLE LAKE     FAIR      56  33  41 E3        30.35F
HUTCHINSON     FAIR      54  32  42 E5        30.36F
$$
MNZ037-044-045-052-053-212200-
   East Central Minnesota

CITY           SKY/WX    TMP DP  RH WIND       PRES   REMARKS
PRINCETON      FAIR      61  25  25 CALM      30.35F
MORA           FAIR      54  23  30 CALM      30.37F
CAMBRIDGE      FAIR      57  34  41 W5        30.36S
RUSH CITY      FAIR      56  21  25 W5        30.36S
MOOSE LAKE     FAIR      55  23  28 W6        30.32F
HINCKLEY       FAIR      55  21  26 SW6       30.35S
CLOQUET        FAIR      55  10  16 S5        30.33S
MCGREGOR       FAIR      57  23  26 SW8       30.34S
$$
MNZ071>073-080-081-089-090-097-098-212200-
   Southwest Minnesota

CITY           SKY/WX    TMP DP  RH WIND       PRES   REMARKS
MONTEVIDEO     SUNNY     55  36  47 SW9       30.34F
GRANITE FALLS  PTSUNNY   55  34  45 SE7       30.35F
CANBY          CLOUDY    52  36  55 E5        30.34F
MARSHALL       CLOUDY    47  30  51 SE8       30.34F
REDWOOD FALLS  CLOUDY    52  35  52 SE7       30.34F
OLIVIA         MOSUNNY   54  34  47 E5        30.33F
PIPESTONE      MOSUNNY  N/A N/A N/A E6        30.32F
WINDOM         CLOUDY    45  25  45 NE5       30.34F
WORTHINGTON    CLOUDY    45  35  68 E6        30.33F
JACKSON        CLOUDY    41  34  75 NE3       30.34F
TRACY          CLOUDY    45  34  64 SE3       30.34F
SLAYTON        CLOUDY    43  31  63 E6        30.34F
$$
MNZ065>067-074>077-082>085-091>093-212200-
   South Central Minnesota

CITY           SKY/WX    TMP DP  RH WIND       PRES   REMARKS
MANKATO        CLOUDY    50  36  58 SE6       30.36F
NEW ULM        CLOUDY    48  28  46 SE3       30.35F
ST JAMES       CLOUDY    45  34  65 CALM      30.36S
FAIRMONT       CLOUDY    44  33  65 NE6       30.35F
GLENCOE        FAIR      55  21  27 E3        30.34F
FARIBAULT      FAIR      55  36  47 CALM      30.35F
OWATONNA       PTSUNNY   52  34  50 CALM      30.35F
WASECA         CLOUDY    52  36  54 NE3       30.36F
ALBERT LEA     PTSUNNY   48  30  49 SE5       30.35S
$$
MNZ078>079-086>088-094>096-212200-
   Southeast Minnesota

CITY           SKY/WX    TMP DP  RH WIND       PRES   REMARKS
ROCHESTER      CLOUDY    50  36  58 CALM      30.36F
RED WING       FAIR      59  27  29 W8        30.34F
STANTON        FAIR      55  37  52 S9        30.34F
DODGE CENTER   CLOUDY    48  34  57 CALM      30.36F
WINONA         PTSUNNY   55  32  41 SW5       30.35S
AUSTIN         PTSUNNY   48  37  66 CALM      30.35F
PRESTON        CLOUDY    52  31  44 CALM      30.36F
$$
ABBREVIATIONS USED IN REMARKS
   TC - TEMPERATURES IN CELSIUS
  WCI - WIND CHILL INDEX
   HX - HEAT INDEX
  VSB - VISIBILITY
$$




USA.gov is the U.S. government's official web portal to all federal, state and local government web resources and services.